{"data":{"norad_id":25560,"epoch":"2026-05-24T19:45:24.377184Z","epoch_age_seconds":83488,"freshness":"FRESH","line1":"1 25560U 98071A   26144.82319881  .00003204  00000+0  20622-3 0  9993","line2":"2 25560  69.8960 287.7620 0008572 281.4482  78.5719 15.09424869493743","mean_motion":15.09424869,"eccentricity":0.0008572,"inclination_deg":69.896,"raan_deg":287.762,"arg_perigee_deg":281.4482,"mean_anomaly_deg":78.5719,"bstar":0.00020622,"rev_number":49374,"period_min":95.40057472049,"perigee_km":532.02778054644,"apogee_km":543.88473082399,"semimajor_km":6916.0932556852,"source":"CELESTRAK","updated_at":"2026-05-25T13:38:24.633534Z"}}